When you browse on this site, cookies collect data to enhance your experience and personalize the content and advertising you see.
Visit our Privacy Policy to learn more. By continuing to use the site, you agree to this use of cookies and data.
  • Em Portugal
  • Lista de países
  • Para 7 dias
  • Temperatura da água
  • Mapas de satélite
  • Mapa do tempo
  • Widgets de tempo
  • user-avatar
    Iniciar Sessão

    Previsão horária em Orlinoe

    Hoje, 19 Novembro, Segunda-feira

    Tempo Temperatura Precipitação Vento Pressão Humidade
    00:00 -5°C° 0 mm 0 m/s 754 mmHg 63%
    01:00 -5°C° 0 mm 0 m/s 753 mmHg 63%
    02:00 -5°C° 0 mm 0 m/s 753 mmHg 63%
    03:00 -4°C° 0 mm 1 m/s 753 mmHg 62%
    04:00 -5°C° 0 mm 0 m/s 753 mmHg 62%
    05:00 -5°C° 0 mm 0 m/s 753 mmHg 62%
    06:00 -5°C° 0 mm 0 m/s 753 mmHg 62%
    07:00 -5°C° 0 mm 0 m/s 753 mmHg 58%
    08:00 -4°C° 0 mm 0 m/s 754 mmHg 54%
    09:00 -3°C° 0 mm 0 m/s 754 mmHg 50%
    10:00 -1°C° 0 mm 1 m/s 754 mmHg 48%
    11:00 0°C° 0 mm 1 m/s 754 mmHg 46%
    12:00 -1°C° 0 mm 2 m/s 754 mmHg 44%
    13:00 -1°C° 0 mm 2 m/s 754 mmHg 49%
    14:00 -2°C° 0 mm 2 m/s 754 mmHg 53%
    15:00 -2°C° 0 mm 2 m/s 754 mmHg 59%
    16:00 -3°C° 0 mm 2 m/s 754 mmHg 64%
    17:00 -2°C° 0 mm 1 m/s 755 mmHg 69%
    18:00 -3°C° 0 mm 1 m/s 756 mmHg 74%
    19:00 -3°C° 0 mm 1 m/s 756 mmHg 75%
    20:00 -3°C° 0 mm 1 m/s 756 mmHg 75%
    21:00 -3°C° 0 mm 1 m/s 756 mmHg 75%
    22:00 -4°C° 0 mm 1 m/s 756 mmHg 74%
    23:00 -4°C° 0 mm 1 m/s 757 mmHg 72%

    Amanhã, 20 Novembro, Terça-feira

    Tempo Temperatura Precipitação Vento Pressão Humidade
    00:00 -4°C° 0 mm 1 m/s 757 mmHg 71%
    01:00 -4°C° 0 mm 1 m/s 757 mmHg 70%
    02:00 -4°C° 0 mm 1 m/s 757 mmHg 69%
    03:00 -6°C° 0 mm 1 m/s 757 mmHg 69%
    04:00 -6°C° 0 mm 1 m/s 757 mmHg 69%
    05:00 -6°C° 0 mm 1 m/s 757 mmHg 69%
    06:00 -7°C° 0 mm 1 m/s 757 mmHg 69%
    07:00 -6°C° 0 mm 1 m/s 757 mmHg 64%
    08:00 -4°C° 0 mm 1 m/s 757 mmHg 59%
    09:00 -4°C° 0 mm 1 m/s 757 mmHg 55%
    10:00 -3°C° 0 mm 1 m/s 756 mmHg 51%
    11:00 -2°C° 0 mm 1 m/s 756 mmHg 48%
    12:00 0°C° 0 mm 1 m/s 755 mmHg 45%
    13:00 0°C° 0 mm 1 m/s 755 mmHg 46%
    14:00 0°C° 0 mm 1 m/s 755 mmHg 47%
    15:00 0°C° 0 mm 1 m/s 754 mmHg 48%
    16:00 0°C° 0 mm 1 m/s 754 mmHg 53%
    17:00 -1°C° 0 mm 1 m/s 754 mmHg 59%
    18:00 -3°C° 0 mm 0 m/s 754 mmHg 64%
    19:00 -3°C° 0.1 mm 0 m/s 754 mmHg 68%
    20:00 -3°C° 0.1 mm 0 m/s 754 mmHg 72%
    21:00 -3°C° 0.1 mm 0 m/s 754 mmHg 77%
    22:00 -2°C° 0.1 mm 1 m/s 755 mmHg 76%
    23:00 -5°C° 0.1 mm 2 m/s 755 mmHg 75%

    Depois de amanhã, 21 Novembro, Quarta-feira

    Tempo Temperatura Precipitação Vento Pressão Humidade
    00:00 -6°C° 0.1 mm 3 m/s 755 mmHg 75%
    01:00 -7°C° 0 mm 3 m/s 755 mmHg 71%
    02:00 -8°C° 0 mm 3 m/s 756 mmHg 68%
    03:00 -9°C° 0 mm 3 m/s 756 mmHg 64%
    04:00 -9°C° 0 mm 3 m/s 756 mmHg 62%
    05:00 -10°C° 0 mm 3 m/s 756 mmHg 60%
    06:00 -10°C° 0 mm 2 m/s 756 mmHg 57%
    07:00 -9°C° 0 mm 2 m/s 757 mmHg 53%
    08:00 -9°C° 0 mm 2 m/s 757 mmHg 49%
    09:00 -8°C° 0 mm 1 m/s 757 mmHg 44%
    10:00 -8°C° 0 mm 2 m/s 757 mmHg 43%
    11:00 -7°C° 0 mm 2 m/s 757 mmHg 41%
    12:00 -6°C° 0 mm 2 m/s 757 mmHg 40%
    13:00 -6°C° 0 mm 2 m/s 756 mmHg 40%
    14:00 -6°C° 0 mm 2 m/s 756 mmHg 40%
    15:00 -6°C° 0 mm 2 m/s 756 mmHg 40%
    16:00 -6°C° 0 mm 2 m/s 756 mmHg 43%
    17:00 -7°C° 0 mm 2 m/s 756 mmHg 47%
    18:00 -6°C° 0 mm 1 m/s 756 mmHg 50%
    19:00 -7°C° 0 mm 1 m/s 756 mmHg 51%
    20:00 -7°C° 0 mm 1 m/s 756 mmHg 52%
    21:00 -7°C° 0 mm 1 m/s 756 mmHg 52%
    22:00 -7°C° 0 mm 1 m/s 756 mmHg 52%
    23:00 -8°C° 0 mm 2 m/s 756 mmHg 53%

    22 Novembro, Quinta-feira

    Tempo Temperatura Precipitação Vento Pressão Humidade
    00:00 -8°C° 0 mm 2 m/s 756 mmHg 53%
    01:00 -9°C° 0 mm 2 m/s 755 mmHg 53%
    02:00 -9°C° 0 mm 2 m/s 755 mmHg 54%
    03:00 -9°C° 0 mm 2 m/s 754 mmHg 55%
    04:00 -9°C° 0 mm 2 m/s 754 mmHg 56%
    05:00 -9°C° 0 mm 2 m/s 754 mmHg 57%
    06:00 -9°C° 0 mm 2 m/s 753 mmHg 58%
    07:00 -8°C° 0 mm 2 m/s 753 mmHg 55%
    08:00 -8°C° 0 mm 3 m/s 753 mmHg 52%
    09:00 -7°C° 0 mm 3 m/s 753 mmHg 49%
    10:00 -7°C° 0 mm 4 m/s 752 mmHg 46%
    11:00 -7°C° 0 mm 5 m/s 752 mmHg 44%
    12:00 -6°C° 0 mm 6 m/s 751 mmHg 41%
    13:00 -8°C° 0 mm 6 m/s 751 mmHg 40%
    14:00 -8°C° 0 mm 6 m/s 751 mmHg 40%
    15:00 -9°C° 0 mm 6 m/s 751 mmHg 39%
    16:00 -8°C° 0.1 mm 5 m/s 752 mmHg 47%
    17:00 -10°C° 0.1 mm 5 m/s 752 mmHg 55%
    18:00 -10°C° 0.1 mm 5 m/s 753 mmHg 63%
    19:00 -11°C° 0.1 mm 5 m/s 753 mmHg 65%
    20:00 -12°C° 0.1 mm 5 m/s 754 mmHg 67%
    21:00 -13°C° 0.1 mm 5 m/s 754 mmHg 69%
    22:00 -13°C° 0 mm 5 m/s 755 mmHg 67%
    23:00 -14°C° 0 mm 4 m/s 755 mmHg 66%

    23 Novembro, Sexta-feira

    Tempo Temperatura Precipitação Vento Pressão Humidade
    00:00 -14°C° 0 mm 4 m/s 756 mmHg 65%
    01:00 -14°C° 0 mm 4 m/s 756 mmHg 64%
    02:00 -15°C° 0 mm 4 m/s 756 mmHg 63%
    03:00 -15°C° 0 mm 4 m/s 756 mmHg 62%
    04:00 -15°C° 0 mm 4 m/s 756 mmHg 61%
    05:00 -15°C° 0 mm 4 m/s 756 mmHg 61%
    06:00 -14°C° 0 mm 3 m/s 756 mmHg 60%
    07:00 -14°C° 0 mm 3 m/s 757 mmHg 56%
    08:00 -14°C° 0 mm 3 m/s 757 mmHg 52%
    09:00 -13°C° 0 mm 3 m/s 757 mmHg 48%
    10:00 -12°C° 0 mm 4 m/s 757 mmHg 44%
    11:00 -11°C° 0 mm 4 m/s 756 mmHg 40%
    12:00 -11°C° 0 mm 5 m/s 756 mmHg 36%
    13:00 -11°C° 0 mm 5 m/s 755 mmHg 36%
    14:00 -11°C° 0 mm 5 m/s 755 mmHg 37%
    15:00 -10°C° 0 mm 5 m/s 755 mmHg 37%
    16:00 -10°C° 0 mm 4 m/s 755 mmHg 42%
    17:00 -10°C° 0 mm 3 m/s 755 mmHg 47%
    18:00 -9°C° 0 mm 2 m/s 756 mmHg 51%
    19:00 -9°C° 0 mm 2 m/s 756 mmHg 53%
    20:00 -10°C° 0 mm 2 m/s 756 mmHg 54%
    21:00 -9°C° 0 mm 1 m/s 756 mmHg 55%
    22:00 -9°C° 0 mm 1 m/s 756 mmHg 56%
    23:00 -9°C° 0 mm 1 m/s 756 mmHg 57%

    24 Novembro, Sábado

    Tempo Temperatura Precipitação Vento Pressão Humidade
    00:00 -9°C° 0 mm 1 m/s 756 mmHg 57%
    01:00 -9°C° 0 mm 1 m/s 756 mmHg 58%
    02:00 -10°C° 0 mm 2 m/s 756 mmHg 59%
    03:00 -10°C° 0 mm 2 m/s 756 mmHg 60%
    04:00 -9°C° 0 mm 1 m/s 756 mmHg 61%
    05:00 -9°C° 0 mm 1 m/s 756 mmHg 62%
    06:00 -9°C° 0 mm 1 m/s 756 mmHg 64%
    07:00 -9°C° 0 mm 1 m/s 756 mmHg 61%
    08:00 -8°C° 0 mm 1 m/s 757 mmHg 58%
    09:00 -7°C° 0 mm 1 m/s 757 mmHg 55%
    10:00 -6°C° 0 mm 1 m/s 756 mmHg 51%
    11:00 -6°C° 0 mm 2 m/s 756 mmHg 46%
    12:00 -5°C° 0 mm 2 m/s 756 mmHg 42%
    13:00 -4°C° 0 mm 2 m/s 755 mmHg 41%
    14:00 -4°C° 0 mm 2 m/s 755 mmHg 41%
    15:00 -4°C° 0 mm 2 m/s 754 mmHg 40%
    16:00 -5°C° 0 mm 2 m/s 755 mmHg 44%
    17:00 -4°C° 0 mm 1 m/s 755 mmHg 48%
    18:00 -6°C° 0 mm 1 m/s 755 mmHg 52%
    19:00 -6°C° 0 mm 1 m/s 755 mmHg 53%
    20:00 -6°C° 0 mm 1 m/s 755 mmHg 54%
    21:00 -7°C° 0 mm 2 m/s 755 mmHg 55%
    22:00 -7°C° 0 mm 2 m/s 755 mmHg 56%
    23:00 -7°C° 0 mm 1 m/s 754 mmHg 57%
    Mostrar mais